Observations for Trim Market St
| Time | AQI | Temp °C | Hum % | Pres Pa | CO μg/m³ | H₂S μg/m³ | NO μg/m³ | NO₂ μg/m³ | O₃ μg/m³ | SO₂ μg/m³ | PM1 μg/m³ | PM2.5 μg/m³ | PM10 μg/m³ |
|---|---|---|---|---|---|---|---|---|---|---|---|---|---|
| Sunday 23 August 2026 | |||||||||||||
| 04:47 | 2 | 13.5 | 70 | 56,554 | 0.35 | 0 | 2.55 | 7.69 | 49.07 | 0 | 0.71 | 2.59 | 4.38 |
| 04:45 | 2 | 13.5 | 70 | 56,543 | 0.36 | 0 | 2.56 | 7.88 | 48.81 | 0 | 0.71 | 2.59 | 4.38 |
| 04:41 | 2 | 13.5 | 70 | 56,508 | 0.35 | 0 | 2.87 | 8.07 | 48.89 | 0 | 1.43 | 3.07 | 5.64 |
| 04:40 | 2 | 13.5 | 70 | 56,513 | 0.37 | 0 | 3.17 | 8.17 | 49.5 | 0 | 0 | 2.59 | 5.01 |
| 04:39 | 2 | 13.5 | 70 | 56,523 | 0.36 | 0 | 4.96 | 8.17 | 49.97 | 0 | 2.14 | 4.05 | 6.27 |
| 04:37 | 2 | 13.5 | 70 | 56,544 | 0.36 | 0 | 4.5 | 9.05 | 48.13 | 0 | 1.43 | 4.05 | 6.27 |
| 04:26 | 2 | 13.5 | 69 | 56,609 | 0.45 | 0 | 2.46 | 8.63 | 50.18 | 0 | 1.43 | 3.09 | 5.64 |
| 04:25 | 2 | 13.5 | 69 | 56,595 | 0.6 | 0 | 2.44 | 9.51 | 48.98 | 0 | 1.43 | 3.57 | 6.27 |
| 04:24 | 2 | 13.5 | 69 | 56,586 | 0.57 | 0 | 2.36 | 8 | 50.85 | 0 | 1.43 | 3.09 | 5.01 |
| 04:23 | 2 | 13.5 | 69 | 56,580 | 0.39 | 0 | 2.17 | 8.51 | 50.46 | 0 | 1.43 | 2.11 | 4.38 |
| 04:22 | 2 | 13.5 | 69 | 56,580 | 0.35 | 0 | 2.5 | 8.09 | 50.78 | 0 | 1.43 | 3.09 | 5.01 |
| 04:21 | 2 | 13.5 | 69 | 56,581 | 0.36 | 0 | 2.38 | 8.51 | 49.89 | 0 | 1.43 | 3.58 | 5.64 |
| 04:20 | 2 | 13.5 | 69 | 56,592 | 0.36 | 0 | 2.23 | 8.1 | 50.77 | 0 | 1.43 | 3.09 | 5 |
| 04:19 | 2 | 13.5 | 69 | 56,595 | 0.35 | 0 | 2.12 | 8.01 | 50.68 | 0 | 1.43 | 2.6 | 5.64 |
| 04:18 | 2 | 13.5 | 69 | 56,597 | 0.35 | 0 | 2.3 | 7.92 | 51.31 | 0 | 1.43 | 3.1 | 5 |
| 04:17 | 2 | 13.5 | 69 | 56,608 | 0.36 | 0 | 2.04 | 8.51 | 50.4 | 0 | 0.71 | 2.12 | 3.74 |
| 04:16 | 2 | 13.5 | 69 | 56,632 | 0.36 | 0 | 2.01 | 9.05 | 49.57 | 0 | 1.43 | 4.07 | 6.27 |
| 04:15 | 2 | 13.5 | 69 | 56,659 | 0.35 | 0 | 1.96 | 8.63 | 50.13 | 0 | 1.43 | 2.61 | 4.37 |
| 04:14 | 2 | 13.5 | 69 | 56,679 | 0.37 | 0 | 1.94 | 8.2 | 50.24 | 0 | 1.43 | 3.1 | 5 |
| 04:13 | 2 | 13.5 | 69 | 56,699 | 0.36 | 0 | 1.9 | 8.12 | 51.39 | 0 | 0.71 | 2.62 | 4.36 |